Location: Ballingbuur
(53.0000°N, 5.7667°E)
Time: 19:12:14
(UTC+00:00)

USA 305 - Visible Passes

Search period start: 13 April 2021 00:00
Search period end: 23 April 2021 00:00
Orbit: 567 x 574 km, 54.0° (Epoch: 13 April)

Date Brightness Start Highest point End Pass type
(mag) Time Alt. Az. Time Alt. Az. Time Alt. Az.
13 Apr 5.4 00:53:01 12° ESE 00:53:01 12° ESE 00:53:39 10° E visible
13 Apr 3.2 02:29:05 39° SSW 02:30:18 54° SSE 02:34:30 10° ENE visible
13 Apr 3.0 04:05:55 10° W 04:10:12 80° N 04:14:31 10° E visible
14 Apr 5.1 00:54:03 16° ESE 00:54:03 16° ESE 00:55:25 10° E visible
14 Apr 2.9 02:30:07 39° SW 02:31:34 67° SSE 02:35:51 10° ENE visible
15 Apr 4.8 00:55:04 21° ESE 00:55:04 21° ESE 00:57:00 10° E visible
15 Apr 2.8 02:31:07 35° WSW 02:32:53 79° SSE 02:37:11 10° ENE visible
16 Apr 4.4 00:56:01 27° ESE 00:56:01 27° ESE 00:58:27 10° E visible
16 Apr 2.8 02:32:06 29° WSW 02:34:12 90° W 02:38:32 10° ENE visible
17 Apr 3.9 00:56:57 36° ESE 00:56:57 36° ESE 00:59:50 10° ENE visible
17 Apr 2.9 02:33:02 24° W 02:35:33 82° N 02:39:52 10° E visible
18 Apr 3.5 00:57:53 47° ESE 00:57:53 47° ESE 01:01:11 10° ENE visible
18 Apr 3.0 02:33:56 20° W 02:36:54 78° N 02:41:13 10° E visible
19 Apr 3.0 00:58:45 63° ESE 00:58:45 63° ESE 01:02:30 10° ENE visible
19 Apr 3.0 02:34:49 16° W 02:38:15 77° N 02:42:33 10° E visible
19 Apr 5.5 23:23:33 11° E 23:23:33 11° E 23:23:42 10° E visible
20 Apr 2.8 00:59:37 84° SE 00:59:37 84° SE 01:03:50 10° ENE visible
20 Apr 3.0 02:35:40 12° W 02:39:36 79° N 02:43:54 10° E visible
20 Apr 5.2 23:24:22 14° E 23:24:22 14° E 23:25:06 10° ENE visible
21 Apr 2.8 01:00:25 72° W 01:00:50 86° N 01:05:08 10° ENE visible
21 Apr 2.9 02:36:37 10° W 02:40:56 84° NNE 02:45:14 10° E visible
21 Apr 4.9 23:25:09 19° E 23:25:09 19° E 23:26:26 10° ENE visible
22 Apr 2.9 01:01:12 53° W 01:02:10 80° N 01:06:28 10° E visible
22 Apr 2.8 02:37:56 10° WNW 02:42:15 88° SSW 02:46:33 10° ESE visible
22 Apr 4.5 23:25:52 25° E 23:25:52 25° E 23:27:45 10° ENE visible
